Home   Weather   Esbjerg   Past weeks

Flag for Denmark Past Weather in Esbjerg, Denmark — Yesterday and Last 2 Weeks

50 °F

Partly sunny.

Feels Like: 47 °F
Forecast: 49 / 56 °F
Wind: 7 mph from South

Location: Esbjerg Airport

Current Time: Oct 26, 2016 at 3:24:27 PM

Latest Report: Oct 26, 2016 at 2:50 PM

Visibility: N/A

Pressure: 30.27 "Hg

Humidity: 88%

Dew Point: 46 °F

Location of EsbjergLocation

Past Weather in Esbjerg — Graph


Esbjerg Temperature Yesterday

Maximum temperature yesterday: 48 °F (at 1:20 PM)
Minimum temperature yesterday: 30 °F (at 8:50 AM)
Average temperature yesterday: 38 °F

High & Low Weather Summary for the Past Weeks

High54 °F (Oct 18, 11:20 AM)100% (Oct 13, 6:50 AM)30.36 "Hg (Oct 13, 6:50 AM)
Low30 °F (Oct 25, 8:50 AM)62% (Oct 14, 2:20 PM)29.86 "Hg (Oct 15, 8:20 AM)
Average47 °F90%30.11 "Hg
* Reported Oct 11 2:20 PM — Oct 26 2:20 PM, Esbjerg, Weather by CustomWeather, © 2016

Note: Actual official high and low records may vary slightly from our data, if they occured in-between our weather recording intervals... More about our weather records


Esbjerg Weather History for the Previous 24 Hours

Scroll right to see more
Time TempWeatherWind HumidityBarometerVisibility
2:20 PM
Wed, Oct 26
50 °FPartly sunny.7 mph88%30.30 "HgN/A
1:50 PM48 °FBroken clouds.7 mph100%30.30 "Hg5 mi
1:20 PM46 °FFog.7 mph100%30.30 "Hg3 mi
12:50 PM46 °FLight rain. Fog.7 mph93%30.30 "Hg2 mi
12:20 PM45 °FDrizzle. Fog.7 mph100%30.33 "Hg1 mi
11:50 AM45 °FSprinkles. Fog.7 mph93%30.33 "Hg2 mi
11:20 AM43 °FSprinkles. Fog.8 mph100%30.30 "Hg2 mi
10:50 AM43 °FSprinkles. Fog.7 mph100%30.33 "Hg2 mi
10:20 AM43 °FBroken clouds.6 mph93%30.33 "Hg6 mi
9:50 AM41 °FBroken clouds.6 mph93%30.33 "Hg4 mi
9:20 AM39 °FBroken clouds.5 mph100%30.33 "Hg4 mi
8:50 AM39 °FPartly sunny.6 mph100%30.33 "Hg4 mi
8:20 AM37 °FScattered clouds.6 mph100%30.33 "Hg3 mi
7:50 AM37 °FPassing clouds.6 mph93%30.33 "Hg4 mi
7:20 AM36 °FPassing clouds.6 mph100%30.33 "Hg5 mi
6:50 AM36 °FPassing clouds.5 mph100%30.33 "Hg3 mi
6:20 AM36 °FFog.6 mph100%30.33 "Hg2 mi
5:50 AM36 °FFog.5 mph100%30.33 "Hg1 mi
5:20 AM36 °FFog.3 mph93%30.33 "Hg0 mi
4:50 AM34 °FPartly cloudy.3 mph100%30.33 "Hg3 mi
4:20 AM34 °FFog.6 mph100%30.33 "Hg1 mi
3:50 AM34 °FFog.6 mph100%30.33 "Hg1 mi
3:20 AM34 °FFog.2 mph100%30.33 "Hg0 mi
2:50 AM34 °FFog.3 mph93%30.33 "Hg1 mi
2:20 AM32 °FFog.2 mph100%30.33 "Hg0 mi
1:50 AM32 °FFog.2 mph100%30.33 "Hg0 mi
1:20 AM32 °FFog.1 mph100%30.33 "Hg0 mi
12:50 AM32 °FFog.1 mph100%30.33 "Hg0 mi
12:20 AM34 °FFog.2 mph100%30.33 "Hg0 mi
11:50 PM
Tue, Oct 25
34 °FFog.2 mph100%30.33 "Hg0 mi
11:20 PM36 °FFog.3 mph93%30.33 "Hg0 mi
10:50 PM34 °FFog.3 mph100%30.33 "Hg0 mi
10:20 PM34 °FFog.2 mph100%30.33 "Hg0 mi
9:50 PM36 °FFog.1 mph93%30.33 "Hg1 mi
9:20 PM36 °FFog.2 mph93%30.33 "Hg1 mi
8:50 PM34 °FFog.2 mph93%30.33 "Hg1 mi
8:20 PM36 °FFog.2 mph100%30.33 "Hg3 mi
7:50 PM37 °FFog.1 mph100%30.30 "Hg3 mi
7:20 PM37 °FFog.2 mph100%30.30 "Hg2 mi
6:50 PM39 °FChilly.3 mph100%30.30 "Hg4 mi
6:20 PM41 °FQuite cool.2 mph93%30.27 "Hg3 mi
5:50 PM43 °FQuite cool.2 mph87%30.27 "HgN/A
5:20 PM45 °FQuite cool.1 mph87%30.27 "HgN/A
4:50 PM46 °FPassing clouds.2 mph87%30.27 "HgN/A
4:20 PM46 °FScattered clouds.6 mph87%30.27 "HgN/A
3:50 PM48 °FScattered clouds.5 mph76%30.27 "HgN/A
3:20 PM48 °FPassing clouds.5 mph76%30.24 "HgN/A
Weather by CustomWeather, © 2016

See weather overviewHow to use our weather pages